Sioux Falls, SD

10:55 PM CDT on October 23, 2019 (GMT -0500)
Foss

Weather History for KFSD - August, 2019

Change the Weather History Date:

Wednesday, August 28, 2019

  Actual Average Record
Temperature  
Mean Temperature 66 °F 68 °F  
Max Temperature 78 °F 80 °F 100 °F (1973)
Min Temperature 53 °F 57 °F 38 °F (1893)
Degree Days  
Heating Degree Days 0 1  
Month to date heating degree days 0 15  
Since 1 June heating degree days 20 74  
Since 1 July heating degree days 0 23  
Cooling Degree Days 0 5  
Month to date cooling degree days 176 185  
Year to date cooling degree days 704 612  
Since 1 June cooling degree days 689 576  
Growing Degree Days 16 (Base 50)    
Moisture  
Dew Point 50 °F    
Average Humidity 63    
Maximum Humidity 87    
Minimum Humidity 36    
Precipitation  
Precipitation 0.00 in 0.09 in 2.37 in (1932)
Month to date precipitation 2.47 2.74  
Year to date precipitation 29.66 19.08  
Snow  
Snow 0.00 in 0.00 in 0.00 in ()
Month to date snowfall T 0.0  
Since 1 June snowfall T 0.0  
Since 1 July snowfall T 0.0  
Snow Depth 0.00 in    
Sea Level Pressure  
Sea Level Pressure 29.98 in    
Wind  
Wind Speed 6 mph ()    
Max Wind Speed 16 mph    
Max Gust Speed 27 mph    
Visibility 10.0 miles    
Events      
T = Trace of Precipitation, MM = Missing Value Source: Averaged Metar Reports

Daily Weather History Graph

Daily Weather History Graph

Search for Another Location

Airport or City:

Astronomy

Aug. 28, 2019 Rise Set
Actual Time 6:46 AM CDT 8:09 PM CDT
Civil Twilight 6:16 AM CDT 8:39 PM CDT
Nautical Twilight 5:40 AM CDT 9:15 PM CDT
Astronomical Twilight 5:01 AM CDT 9:53 PM CDT
Moon 4:13 AM CDT (8/28) 7:27 PM CDT (8/28)
Length of Visible Light 14h 23m
Length of Day
13h 23m
Waning Crescent, 4% of the Moon is Illuminated
Aug 28
Waning Crescent
Aug 30
New
Sep 5
First Quarter
Sep 13
Full
Sep 21
Last Quarter

Hourly Weather History & Observations

Time (CDT) Temp. Dew Point Humidity Pressure Visibility Wind Dir Wind Speed Gust Speed Precip Events Conditions
12:56 AM 57.9 °F 48.9 °F 72% 29.97 in 10.0 mi West 8.1 mph - N/A   Clear
1:56 AM 57.0 °F 48.9 °F 74% 29.98 in 10.0 mi West 6.9 mph - N/A   Clear
2:56 AM 55.9 °F 48.9 °F 77% 29.99 in 10.0 mi West 6.9 mph - N/A   Clear
3:56 AM 55.0 °F 48.0 °F 77% 29.99 in 10.0 mi West 5.8 mph - N/A   Clear
4:56 AM 54.0 °F 48.0 °F 80% 30.00 in 10.0 mi West 4.6 mph - N/A   Clear
5:56 AM 53.1 °F 48.0 °F 83% 30.01 in 10.0 mi West 4.6 mph - N/A   Clear
6:56 AM 53.1 °F 48.0 °F 83% 30.03 in 10.0 mi West 5.8 mph - N/A   Clear
7:56 AM 55.9 °F 50.0 °F 80% 30.04 in 10.0 mi West 8.1 mph - N/A   Clear
8:56 AM 61.0 °F 51.1 °F 70% 30.04 in 10.0 mi West 10.4 mph - N/A   Clear
9:56 AM 66.0 °F 52.0 °F 60% 30.03 in 10.0 mi WNW 9.2 mph - N/A   Clear
10:56 AM 69.1 °F 52.0 °F 54% 30.04 in 10.0 mi WNW 8.1 mph - N/A   Clear
11:56 AM 71.1 °F 51.1 °F 49% 30.04 in 10.0 mi WNW 12.7 mph 20.7 mph N/A   Partly Cloudy
12:56 PM 73.0 °F 52.0 °F 48% 30.03 in 10.0 mi West 10.4 mph 20.7 mph N/A   Partly Cloudy
1:56 PM 75.0 °F 48.9 °F 40% 30.01 in 10.0 mi WNW 11.5 mph 23.0 mph N/A   Partly Cloudy
2:56 PM 77.0 °F 48.9 °F 37% 30.00 in 10.0 mi WNW 15.0 mph 21.9 mph N/A   Partly Cloudy
3:56 PM 75.9 °F 50.0 °F 40% 29.99 in 10.0 mi West 6.9 mph - N/A   Clear
4:56 PM 77.0 °F 48.9 °F 37% 29.96 in 10.0 mi West 10.4 mph - N/A   Clear
5:56 PM 75.9 °F 48.9 °F 38% 29.95 in 10.0 mi WSW 4.6 mph - N/A   Partly Cloudy
6:56 PM 75.0 °F 48.0 °F 38% 29.94 in 10.0 mi Variable 4.6 mph - N/A   Partly Cloudy
7:56 PM 71.1 °F 51.1 °F 49% 29.92 in 10.0 mi Calm Calm - N/A   Scattered Clouds
8:56 PM 64.0 °F 54.0 °F 70% 29.93 in 10.0 mi Calm Calm - N/A   Partly Cloudy
9:56 PM 60.1 °F 54.0 °F 80% 29.93 in 10.0 mi Calm Calm - N/A   Clear
10:56 PM 61.0 °F 54.0 °F 78% 29.91 in 10.0 mi Calm Calm - N/A   Clear
11:56 PM 55.9 °F 52.0 °F 87% 29.90 in 10.0 mi Calm Calm - N/A   Clear